Regional Weather Roundup
Issued by NWS

Home | Current Version | Previous Version | Graphics & Text | Print | Product List | Glossary On
Versions: 1 2 3 4 5 6 7 8 9 10 11 12 13 14 15 16 17 18 19 20 21 22 23 24 25 26 27 28 29 30 31 32 33 34 35 36 37 38 39 40 41 42 43 44 45 46 47 48 49 50
000
ASUS45 KBOU 041907
RWRCO

WEATHER ROUNDUP FOR COLORADO
NATIONAL WEATHER SERVICE DENVER/BOULDER CO
100 PM MDT MON MAY 04 2015

NOTE: "FAIR" INDICATES FEW OR NO CLOUDS BELOW 12000 FEET WITH NO
SIGNIFICANT WEATHER AND/OR OBSTRUCTIONS TO VISIBILITY.

COZ001>005-013-030-031-042000-
...NORTHWEST COLORADO...

CITY           SKY/WX    TMP DP  RH WIND       PRES   REMARKS
CRAIG          PTSUNNY   66  38  35 CALM      30.03F
HAYDEN         NOT AVBL
MEEKER         PTSUNNY   63  40  42 CALM      30.03F
MOUNT WERNER   NOT AVBL
STEAMBOAT SPGS PTSUNNY   59  37  44 W3        30.06F
WALDEN         CLOUDY    45  34  65 S21G28    30.14R
$$

COZ006>008-011-042000-
...WEST CENTRAL VALLEYS...

CITY           SKY/WX    TMP DP  RH WIND       PRES   REMARKS
GRAND JUNCTION PTSUNNY   71  41  33 W8G18     29.96F
MONTROSE       MOSUNNY   66  39  37 W13       30.01F
EAGLE          PTSUNNY   64  36  34 W7        30.05F
RIFLE          CLOUDY    62  42  47 S9        30.02F
DELTA          MOSUNNY   73  38  28 SW5       29.98F
NUCLA          CLOUDY    59  46  63 SE22      30.06S
$$

COZ017>023-064>068-042000-
...SOUTHWEST COLORADO...

CITY           SKY/WX    TMP DP  RH WIND       PRES   REMARKS
DURANGO        MOSUNNY   66  35  31 MISG      30.03F
CORTEZ         MOSUNNY   71  35  26 SW15G22   30.00F
PAGOSA SPRINGS MOSUNNY   62  24  23 S6        30.09F
TELLURIDE      CLOUDY    46  39  77 CALM      30.20S
WOLF CREEK PAS NOT AVBL
$$

COZ009-010-012-014-032>034-037-058>063-042000-
...CENTRAL COLORADO...

CITY           SKY/WX    TMP DP  RH WIND       PRES   REMARKS
ASPEN          PTSUNNY   60  33  36 N6        30.07F
BUENA VISTA    NOT AVBL
COPPER MTN     CLOUDY    45  27  49 S12G17    30.30F
BERTHOUD PASS  CLOUDY    30  21  69 SE14      30.33F WCI  20
COTTONWOOD PAS CLOUDY    50  36  57 SE6       30.22F
GUNNISON       PTSUNNY   57  34  41 E3        30.12F
KREMMLING      LGT RAIN  55  32  41 N9G18     30.09F
LEADVILLE      PTSUNNY   51  26  37 SW8       30.17F
MONARCH PASS   FOG       34  32  93 E8        30.41S THUNDER VSB<1/4
SALIDA         CLOUDY    55  43  63 W7        30.20F
SUNLIGHT       CLOUDY    39  34  81 CALM      30.27F THUNDER
WILKERSON PASS CLOUDY    37  37 100 CALM      30.32F
$$

COZ069>075-042000-
...SAN LUIS VALLEY/SANGRE DE CRISTO MOUNTAINS...

CITY           SKY/WX    TMP DP  RH WIND       PRES   REMARKS
ALAMOSA        MOSUNNY   63  33  32 MISG      30.08F
LA VETA PASS   TSTM      39  37  93 MISG      30.25F VSB<1/4
SAGUACHE       PTSUNNY   63  34  34 S9        30.12F
$$

COZ035-036-038>040-042000-
...NORTHERN COLORADO FRONT RANGE...

CITY           SKY/WX    TMP DP  RH WIND       PRES   REMARKS
DENVER INTL AP PTSUNNY   57  49  74 NE9       30.11F
DMNS CITY PARK   N/A     58  46  63 N6        30.11F
AURORA         PTSUNNY   59  49  70 NE6       30.12F
FRONT RANGE AP PTSUNNY   59  52  77 NE7       30.13F
ERIE MUNI ARPT CLOUDY    57  48  72 CALM      30.11F
BOULDER MUN AP CLOUDY    54  48  82 CALM      30.11F
CENTENNIAL     CLOUDY    57  46  66 VRB5      30.11F
BROOMFIELD     CLOUDY    55  48  76 CALM      30.13F
FORT COLLINS   CLOUDY    55  46  71 E7        30.14F
LONGMONT       CLOUDY    61  50  67 CALM      30.13F
$$

COZ041-046-047-076>085-087-088-042000-
...PIKES PEAK/PALMER DIVIDE AND SOUTHERN FOOTHILLS...

CITY           SKY/WX    TMP DP  RH WIND       PRES   REMARKS
COLO. SPRINGS  PTSUNNY   60  44  55 SE9G17    30.12F
A. F. ACADEMY  CLOUDY    57  46  65 S10       30.12F
ELLICOTT       PTSUNNY  N/A N/A N/A SE12      30.12F
FALCON         CLOUDY    56  44  64 SE7       30.15F
FORT CARSON    PTSUNNY   62  45  54 S9        30.09F
LIMON          CLOUDY    59  46  62 E6        30.12F
MONUMENT HILL  CLOUDY    52  45  76 NE7       30.15S
TRINIDAD       NOT AVBL
$$

COZ042>045-048>051-090-091-042000-
...NORTHEAST COLORADO...

CITY           SKY/WX    TMP DP  RH WIND       PRES   REMARKS
GREELEY ARPT   CLOUDY    55  43  62 E12       30.13F
AKRON          CLOUDY    54  43  66 E12       30.13F
BURLINGTON     PTSUNNY   61  49  64 NE12      30.12F
WRAY           CLOUDY    51  46  83 NE8       30.14S
STERLING       CLOUDY    63  45  51 E7        30.11F
HOLYOKE        NOT AVBL
FORT MORGAN    CLOUDY    56 -11   6 NE7       30.13F
$$

COZ086-089-092>099-042000-
...SOUTHEAST COLORADO...

CITY           SKY/WX    TMP DP  RH WIND       PRES   REMARKS
PUEBLO         PTSUNNY   65  48  54 E14       30.06F
LA JUNTA       CLOUDY    68  48  48 E15       30.05F
LAMAR          PTSUNNY   69  52  54 E12       30.03F
SPRINGFIELD      N/A     70  49  47 CALM      30.04F
$$



USA.gov is the U.S. government's official web portal to all federal, state and local government web resources and services.